Weather History for KPGA - March, 2013

Change the Weather History Date:

Saturday, March 9, 2013

  Actual Average Record
Temperature  
Mean Temperature 39 °F -  
Max Temperature 45 °F 59 °F 75 °F (1989)
Min Temperature 33 °F 37 °F 21 °F (1964)
Degree Days  
Heating Degree Days 26    
Moisture  
Dew Point 33 °F    
Average Humidity 87    
Maximum Humidity 100    
Minimum Humidity 58    
Precipitation  
Precipitation 0.12 in - - ()
Sea Level Pressure  
Sea Level Pressure 29.84 in    
Wind  
Wind Speed 2 mph (ENE)    
Max Wind Speed 8 mph    
Max Gust Speed -    
Visibility 4 miles    
Events Fog , Snow    
Averages and records for this station are not official NWS values.
T = Trace of Precipitation, MM = Missing Value Source: NWS Daily Summary

Daily Weather History Graph

Daily Weather History Graph

Search for Another Location

Airport or City:

Trip Planner

Search our weather history database for the weather conditions in past years. The results will help you decide how hot, cold, wet, or windy it might be!

Date:

Astronomy

Mar. 09, 2013 Rise Set
Actual Time 6:44 AM MST 6:27 PM MST
Civil Twilight 6:19 AM MST 6:53 PM MST
Nautical Twilight 5:49 AM MST 7:23 PM MST
Astronomical Twilight 5:18 AM MST 7:54 PM MST
Moon 5:08 AM MST (3/9) 4:35 PM MST (3/9)
Length of Visible Light 12h 34m
Length of Day
11h 42m
Waning Crescent, 5% of the Moon is Illuminated
Mar 9
Waning Crescent
Mar 11
New
Mar 19
First Quarter
Mar 27
Full
Apr 2
Last Quarter

Hourly Weather History & Observations

Time (MST) Temp. Windchill Dew Point Humidity Pressure Visibility Wind Dir Wind Speed Gust Speed Precip Events Conditions
12:00 AM 33.8 °F - 32.0 °F 93% 29.76 in 1.2 mi Calm Calm - 0.01 in Snow Light Snow
12:14 AM 33.8 °F - 30.2 °F 87% 29.76 in 1.0 mi Calm Calm - 0.01 in Snow Light Snow
12:21 AM 33.8 °F - 30.2 °F 87% 29.77 in 0.5 mi Calm Calm - 0.01 in Fog , Snow Light Snow
12:36 AM 33.8 °F - 32.0 °F 93% 29.77 in 0.5 mi Calm Calm - 0.02 in Fog , Snow Light Snow
12:50 AM 33.8 °F - 32.0 °F 93% 29.77 in 1.0 mi Calm Calm - 0.02 in Snow Light Snow
12:53 AM 33.1 °F - 32.0 °F 96% 29.73 in 1.5 mi Calm Calm - 0.02 in Snow Light Snow
12:58 AM 33.8 °F - 32.0 °F 93% 29.77 in 3.0 mi Calm Calm - 0.01 in Snow Light Snow
1:04 AM 33.8 °F - 32.0 °F 93% 29.77 in 4.0 mi Calm Calm - 0.01 in Snow Light Snow
1:29 AM 33.8 °F 29.6 °F 32.0 °F 93% 29.77 in 1.8 mi SE 4.6 mph - 0.01 in   Overcast
1:40 AM 33.8 °F 30.8 °F 32.0 °F 93% 29.77 in 0.8 mi SE 3.5 mph - 0.01 in   Overcast
1:53 AM 34.0 °F - 32.0 °F 92% 29.73 in 0.5 mi Calm Calm - 0.01 in Fog Fog
2:15 AM 33.8 °F 30.8 °F 32.0 °F 93% 29.77 in 1.2 mi ENE 3.5 mph - N/A   Overcast
2:27 AM 33.8 °F 29.6 °F 32.0 °F 93% 29.77 in 3.0 mi NNE 4.6 mph - N/A   Overcast
2:42 AM 33.8 °F 28.6 °F 33.8 °F 100% 29.77 in 7.0 mi NE 5.8 mph - 0.00 in Snow Light Snow
2:50 AM 33.8 °F 27.7 °F 32.0 °F 93% 29.77 in 6.0 mi NE 6.9 mph - 0.00 in Snow Light Snow
2:53 AM 34.0 °F 28.0 °F 32.0 °F 92% 29.75 in 6.0 mi NNE 6.9 mph - 0.00 in Snow Light Snow
3:25 AM 33.8 °F 27.7 °F 32.0 °F 93% 29.77 in 1.8 mi ENE 6.9 mph - 0.00 in Snow Light Snow
3:33 AM 33.8 °F 28.6 °F 32.0 °F 93% 29.77 in 0.2 mi East 5.8 mph - 0.00 in Fog , Snow Light Snow
3:53 AM 33.1 °F 27.7 °F 32.0 °F 96% 29.75 in 0.2 mi East 5.8 mph - 0.01 in Fog , Snow Snow
4:33 AM 33.8 °F 30.8 °F 32.0 °F 93% 29.78 in 0.2 mi East 3.5 mph - 0.03 in Fog , Snow Snow
4:42 AM 33.8 °F 29.6 °F 32.0 °F 93% 29.79 in 0.5 mi ESE 4.6 mph - 0.05 in Fog , Snow Snow
4:50 AM 33.8 °F 28.6 °F 30.2 °F 87% 29.79 in 0.5 mi SE 5.8 mph - 0.05 in Fog , Snow Snow
4:53 AM 33.1 °F 27.7 °F 30.9 °F 92% 29.76 in 0.8 mi SE 5.8 mph - 0.06 in Snow Light Snow
5:27 AM 33.8 °F 30.8 °F 32.0 °F 93% 29.79 in 0.8 mi SSE 3.5 mph - 0.04 in Snow Light Snow
5:53 AM 33.1 °F - 30.9 °F 92% 29.78 in 0.8 mi Calm Calm - 0.06 in Snow Light Snow
6:10 AM 33.8 °F - 32.0 °F 93% 29.80 in 1.0 mi Calm Calm - 0.01 in Snow Light Snow
6:28 AM 33.8 °F - 32.0 °F 93% 29.80 in 1.2 mi Calm Calm - 0.02 in Snow Light Snow
6:53 AM 33.1 °F - 32.0 °F 96% 29.80 in 1.5 mi Calm Calm - 0.02 in Snow Light Snow
7:16 AM 33.8 °F - 32.0 °F 93% 29.81 in 0.8 mi Calm Calm - 0.01 in Snow Light Snow
7:45 AM 33.8 °F - 30.2 °F 87% 29.82 in 1.2 mi Calm Calm - 0.01 in Snow Light Snow
7:53 AM 34.0 °F - 32.0 °F 92% 29.81 in 1.5 mi Calm Calm - 0.01 in Snow Light Snow
8:25 AM 33.8 °F - 32.0 °F 93% 29.83 in 2.5 mi Calm Calm - 0.01 in Snow Light Snow
8:28 AM 33.8 °F - 32.0 °F 93% 29.83 in 3.0 mi Calm Calm - 0.01 in Snow Light Snow
8:30 AM 33.8 °F - 32.0 °F 93% 29.83 in 1.0 mi Calm Calm - 0.01 in Snow Light Snow
8:37 AM 33.8 °F - 32.0 °F 93% 29.84 in 0.2 mi Calm Calm - 0.01 in Fog , Snow Light Snow
8:53 AM 34.0 °F - 32.0 °F 92% 29.85 in 0.8 mi Calm Calm - 0.01 in Snow Light Snow
8:56 AM 33.8 °F - 32.0 °F 93% 29.83 in 1.0 mi Calm Calm - 0.00 in Snow Light Snow
9:09 AM 35.6 °F - 33.8 °F 93% 29.84 in 2.0 mi Calm Calm - 0.00 in   Overcast
9:22 AM 35.6 °F - 33.8 °F 93% 29.84 in 4.0 mi Calm Calm - 0.00 in   Overcast
9:26 AM 35.6 °F - 33.8 °F 93% 29.84 in 1.0 mi Calm Calm - 0.00 in   Overcast
9:33 AM 35.6 °F 32.8 °F 32.0 °F 87% 29.85 in 0.2 mi NE 3.5 mph - 0.00 in Fog Fog
9:53 AM 35.1 °F - 34.0 °F 96% 29.86 in 0.8 mi Calm Calm - 0.00 in   Overcast
9:56 AM 35.6 °F - 33.8 °F 93% 29.85 in 2.0 mi Calm Calm - N/A   Overcast
10:03 AM 35.6 °F - 33.8 °F 93% 29.85 in 5.0 mi Calm Calm - N/A   Overcast
10:13 AM 35.6 °F - 33.8 °F 93% 29.85 in 6.0 mi Calm Calm - N/A   Overcast
10:25 AM 37.4 °F - 33.8 °F 87% 29.85 in 8.0 mi Calm Calm - N/A   Overcast
10:33 AM 37.4 °F - 33.8 °F 87% 29.85 in 9.0 mi Calm Calm - N/A   Overcast
10:53 AM 39.9 °F 37.8 °F 35.1 °F 83% 29.85 in 10.0 mi ENE 3.5 mph - N/A   Mostly Cloudy
11:47 AM 41.0 °F 36.4 °F 35.6 °F 81% 29.86 in 10.0 mi NE 6.9 mph - N/A   Overcast
11:48 AM 41.0 °F 36.4 °F 35.6 °F 81% 29.86 in 10.0 mi NE 6.9 mph - N/A   Overcast
11:53 AM 41.0 °F 35.8 °F 36.0 °F 82% 29.86 in 10.0 mi NE 8.1 mph - N/A   Overcast
12:09 PM 39.2 °F 34.2 °F 35.6 °F 87% 29.87 in 10.0 mi NE 6.9 mph - N/A   Overcast
12:28 PM 42.8 °F 38.0 °F 37.4 °F 81% 29.87 in 10.0 mi NE 8.1 mph - N/A   Overcast
12:53 PM 43.0 °F 38.8 °F 37.0 °F 80% 29.86 in 10.0 mi NE 6.9 mph - N/A   Mostly Cloudy
1:53 PM 44.1 °F 39.5 °F 35.1 °F 71% 29.86 in 10.0 mi NNE 8.1 mph - N/A   Scattered Clouds
2:53 PM 44.1 °F 39.5 °F 34.0 °F 68% 29.88 in 10.0 mi NNE 8.1 mph - N/A   Overcast
3:53 PM 44.1 °F 40.8 °F 35.1 °F 71% 29.91 in 10.0 mi NE 5.8 mph - N/A   Overcast
4:53 PM 45.0 °F 41.8 °F 35.1 °F 68% 29.93 in 10.0 mi NE 5.8 mph - N/A   Partly Cloudy
5:53 PM 45.0 °F 41.8 °F 35.1 °F 68% 29.96 in 10.0 mi NE 5.8 mph - N/A   Scattered Clouds
6:53 PM 44.1 °F 42.5 °F 35.1 °F 71% 29.99 in 10.0 mi NE 3.5 mph - N/A   Overcast
7:53 PM 43.0 °F - 36.0 °F 76% 30.02 in 10.0 mi Calm Calm - N/A   Overcast
8:53 PM 43.0 °F - 36.0 °F 76% 30.05 in 10.0 mi Calm Calm - N/A   Mostly Cloudy
9:53 PM 43.0 °F - 36.0 °F 76% 30.08 in 10.0 mi Calm Calm - N/A   Overcast
10:53 PM 43.0 °F - 36.0 °F 76% 30.07 in 10.0 mi Calm Calm - 0.00 in   Overcast
11:53 PM 42.1 °F - 36.0 °F 79% 30.09 in 10.0 mi Calm Calm - N/A   Mostly Cloudy